Fort Worth, TX

9:12 AM CDT on March 24, 2017 (GMT -0500)
Fort Worth Meacham International

Weather History for KFTW - April, 2013

Change the Weather History Date:

Friday, April 5, 2013

  Actual Average Record
Temperature  
Mean Temperature 52 °F -  
Max Temperature 66 °F 71 °F 86 °F (2005)
Min Temperature 37 °F 50 °F 37 °F (2013)
Degree Days  
Heating Degree Days 14    
Growing Degree Days 2 (Base 50)    
Moisture  
Dew Point 43 °F    
Average Humidity 74    
Maximum Humidity 100    
Minimum Humidity 48    
Precipitation  
Precipitation 0.00 in - - ()
Sea Level Pressure  
Sea Level Pressure 30.15 in    
Wind  
Wind Speed 5 mph (SSW)    
Max Wind Speed 15 mph    
Max Gust Speed 16 mph    
Visibility 10 miles    
Events      
Averages and records for this station are not official NWS values.
T = Trace of Precipitation, MM = Missing Value Source: NWS Daily Summary

Daily Weather History Graph

Daily Weather History Graph

Search for Another Location

Airport or City:

Trip Planner

Search our weather history database for the weather conditions in past years. The results will help you decide how hot, cold, wet, or windy it might be!

Date:

Astronomy

Apr. 05, 2013 Rise Set
Actual Time 7:11 AM CDT 7:52 PM CDT
Civil Twilight 6:46 AM CDT 8:17 PM CDT
Nautical Twilight 6:17 AM CDT 8:47 PM CDT
Astronomical Twilight 5:47 AM CDT 9:17 PM CDT
Moon 4:05 AM CDT (4/5) 3:31 PM CDT (4/5)
Length of Visible Light 13h 30m
Length of Day
12h 40m
Waning Crescent, 23% of the Moon is Illuminated
Apr 5
Waning Crescent
Apr 10
New
Apr 18
First Quarter
Apr 25
Full
May 2
Last Quarter

Hourly Weather History & Observations

Time (CDT) Temp. Windchill Dew Point Humidity Pressure Visibility Wind Dir Wind Speed Gust Speed Precip Events Conditions
12:53 AM 42.1 °F 39.2 °F 39.0 °F 89% 30.21 in 10.0 mi WNW 4.6 mph - N/A   Clear
1:53 AM 41.0 °F 38.0 °F 39.0 °F 93% 30.20 in 10.0 mi NW 4.6 mph - N/A   Clear
2:53 AM 41.0 °F - 39.0 °F 93% 30.20 in 10.0 mi Calm Calm - N/A   Clear
3:53 AM 39.9 °F 37.8 °F 39.0 °F 97% 30.22 in 10.0 mi West 3.5 mph - N/A   Clear
4:53 AM 37.9 °F - 37.9 °F 100% 30.21 in 10.0 mi Calm Calm - N/A   Clear
5:53 AM 39.0 °F 36.8 °F 39.0 °F 100% 30.21 in 9.0 mi NW 3.5 mph - N/A   Clear
6:53 AM 37.9 °F 35.5 °F 37.9 °F 100% 30.22 in 10.0 mi WNW 3.5 mph - N/A   Clear
7:53 AM 39.0 °F 35.7 °F 39.0 °F 100% 30.25 in 8.0 mi WNW 4.6 mph - N/A   Clear
8:53 AM 46.0 °F 43.9 °F 42.1 °F 86% 30.25 in 10.0 mi NNW 4.6 mph - N/A   Clear
9:53 AM 48.9 °F - 43.0 °F 80% 30.25 in 10.0 mi West 3.5 mph - N/A   Clear
10:53 AM 52.0 °F - 43.0 °F 71% 30.25 in 10.0 mi Calm Calm - N/A   Clear
11:53 AM 55.9 °F - 45.0 °F 67% 30.24 in - Calm Calm - N/A   Unknown
12:53 PM 60.1 °F - 44.1 °F 55% 30.21 in 10.0 mi SSE 6.9 mph - N/A   Clear
1:53 PM 63.0 °F - 45.0 °F 52% 30.18 in 10.0 mi SSW 8.1 mph 16.1 mph N/A   Clear
2:53 PM 64.9 °F - 46.0 °F 50% 30.15 in 10.0 mi SSW 8.1 mph - N/A   Clear
3:53 PM 66.0 °F - 46.9 °F 50% 30.10 in 10.0 mi South 9.2 mph - N/A   Clear
4:53 PM 66.0 °F - 46.0 °F 48% 30.07 in 10.0 mi South 12.7 mph - N/A   Clear
5:53 PM 64.9 °F - 46.9 °F 52% 30.05 in 10.0 mi South 8.1 mph - N/A   Clear
6:53 PM 64.0 °F - 48.0 °F 56% 30.04 in 10.0 mi SE 15.0 mph - N/A   Clear
7:53 PM 61.0 °F - 46.9 °F 60% 30.04 in 10.0 mi SSE 11.5 mph - N/A   Clear
8:53 PM 59.0 °F - 48.0 °F 67% 30.03 in 10.0 mi SSE 10.4 mph - N/A   Clear
9:53 PM 57.9 °F - 48.0 °F 70% 30.04 in 10.0 mi SSE 10.4 mph - N/A   Clear
10:53 PM 55.9 °F - 48.0 °F 75% 30.04 in 10.0 mi SSE 9.2 mph - N/A   Clear
11:53 PM 57.0 °F - 46.9 °F 69% 30.01 in 10.0 mi SSE 11.5 mph - N/A   Clear